DRAGON CRS-18 DEB (44447 NORAD) Tracking and Keplerian Element Data

This shows tracking and keplerian element data for the satellite.

Feedback or suggestion? Click here.




ElementValue
Catalog44447
NameDRAGON CRS-18 DEB
Epoch Orbit118
Epoch Day214.25246908
Epoch Year2019
RAAN129.8077
Inclination51.6262
Eccentricity0.0018564
Argument of Perigee89.2912
Mean Anonmoly271.2006
Mean Motion16.35323463
Decay Rate0.12456336
L11 44447U 19044B 19214.25246908 .12456336 12273-4 14390-2 0 9992
L22 44447 51.6262 129.8077 0018564 89.2912 271.2006 16.35323463 1180



Live tracking and technical data element details for DRAGON CRS-18 DEB (NORAD 44447). DRAGON CRS-18 DEB can be tracked NOW for your location showing map with azimuth and elevation plus other details from your city location.







IsCatalogInMostPopularTable: catalog: 44447, numindb: 208
Update: records affected: 1



GetName: 44447 DRAGON CRS-18 DEB

Hit Count: updated at: Sun, 04 Jun 2023 23:47:27 GMT